www.pogodaiklimat.ru

Погода и климат >> Архив погоды >> Пакистан >> Dir


ПОГОДА в Dir

  • Прогноз погоды в Dir
  • Монитор погоды в Dir
  • Климат города

АРХИВ ПОГОДЫ в Dir

Время (UTC), дата Ветер
(напр.,м/с)
 
Видим.   Явления Облачность Т
(С)
Тd
(С)
f
(%)
Тe
(С)
Тes
(С)
Комфортность P
(гПа)
Po
(гПа)
Тmin
(С)
Tmax
(С)
R
(мм)
R24
(мм)
S
(см)
00 12.12 штиль 0 4000 м ясно +1.1 -0.3 90 -0 -0 855.0 855.0
03 12.12 штиль 0 10 км 4/4 300 м
[Cu med, cong]
-0.3 -1.9 89 -2 -1 849.0 1000.0 -1.5
06 12.12 штиль 0 10 км 4/0
[As op]
+6.9 -1.9 53 +7 +11 856.0 1024.2
09 12.12 ЮЗ 1 10 км 8/5 300 м
[Cu med, cong As op]
+11.1 -2.5 39 +12 +14 858.0 1000.0
12 12.12 СЗ 1 10 км 4/0
[As op]
+8.9 -2.2 46 +10 +10 844.0 1000.0 +14.1
15 12.12 З 1 4000 м 4/0
[As op]
+5.6 -2.3 57 +6 +6 847.0 1000.0
18 12.12 штиль 0 4000 м 4/0
[As op]
+2.8 -0.9 77 +2 +2 849.0 1000.0
21 12.12 штиль 0 4000 м 4/0
[As op]
+1.1 -1.7 82 0 0 851.0 1000.0
00 13.12 штиль 0 4000 м 4/0
[As op]
-1.1 -2.4 91 -2 -2 853.0 1000.0
03 13.12 штиль 0 10 км ясно -1.7 -3.0 91 -3 -3 868.0 1000.0 -2.5
06 13.12 З 1 10 км ясно +6.9 -1.9 53 +8 +14 881.0 1000.0
09 13.12 СЗ 1 10 км ясно +13.3 -1.8 35 +15 +20 877.0 1000.0
12 13.12 З 1 10 км ясно +7.8 -3.8 44 +9 +9 861.0 1000.0 +14.1
15 13.12 З 1 4000 м ясно +5.0 -1.4 63 +5 +5 862.0 1000.0
18 13.12 штиль 0 4000 м ясно +2.2 -2.0 74 +1 +1 863.0 1000.0
21 13.12 штиль 0 4000 м ясно +0.6 -2.3 81 -0 -0 856.5 1000.0
00 14.12 штиль 0 4000 м ясно -1.7 -3.0 91 -3 -3 869.0 1000.0
03 14.12 штиль 0 10 км ясно -2.2 -3.5 91 -3 -3 889.0 1000.0 -2.9
06 14.12 штиль 0 10 км ясно +8.3 -3.0 45 +8 +15 897.0 1000.0
09 14.12 З 1 10 км ясно +13.9 -7.1 23 +15 +21 895.0 1000.0
12 14.12 СЗ 1 10 км ясно +8.1 -5.8 37 +9 +9 885.0 1000.0 +15.1
15 14.12 ЮЗ 1 4000 м ясно +5.6 -2.3 57 +6 +6 887.0 1000.0
18 14.12 штиль 0 4000 м ясно +3.3 -1.8 69 +3 +3 888.0 1000.0
21 14.12 штиль 0 4000 м ясно +1.1 -3.2 73 0 0 891.0 1000.0
00 15.12 штиль 0 4000 м ясно -1.1 -4.0 81 -2 -2 895.0 1000.0
03 15.12 штиль 0 10 км ясно -2.8 -4.6 87 -4 -4 893.0 1000.0 -3.5
06 15.12 штиль 0 10 км ясно +7.8 -2.1 50 +8 +15 897.0 1000.0
09 15.12 З 1 10 км ясно +15.6 -8.6 18 +17 +23 885.0 1000.0
12 15.12 ЮЗ 1 10 км ясно +8.9 -4.0 40 +10 +10 879.0 1000.0 +16.1
15 15.12 ЮЗ 1 4000 м ясно +5.3 -4.0 51 +6 +6 879.0 1000.0
18 15.12 штиль 0 4000 м ясно +2.8 -2.4 69 +2 +2 880.0 928.8
21 15.12 штиль 0 4000 м ясно +0.6 -2.3 81 -0 -0 858.3 858.0
00 16.12 штиль 0 4000 м ясно -1.4 -3.0 89 -3 -3 887.2 859.0
03 16.12 штиль 0 10 км ясно -2.2 -3.5 91 -3 -3 894.0 1000.0 -3.5
06 16.12 штиль 0 10 км ясно +8.1 -5.8 37 +8 +15 806.0 1000.0
12 16.12 З 1 10 км ясно +9.7 -5.1 35 +11 +11 881.0 1000.0 +17.1
15 16.12 СЗ 1 4000 м ясно +5.6 -5.9 43 +6 +6 879.0 1000.0
18 16.12 штиль 0 4000 м ясно +3.3 -3.4 61 +3 +3 882.0 1000.0
21 16.12 штиль 0 4000 м ясно +1.1 -3.1 74 0 0 884.0 1000.0
00 17.12 штиль 0 4000 м ясно -1.1 -4.0 81 -2 -2 887.0 1000.0
03 17.12 штиль 0 10 км ясно -1.9 -3.5 89 -3 -3 885.0 1000.0 -2.9
06 17.12 ЮЗ 1 10 км ясно +9.4 -3.2 41 +10 +17 890.0 1000.0
09 17.12 З 1 10 км ясно +17.2 -7.3 18 +19 +24 881.0 1000.0
12 17.12 СЗ 1 10 км 4/4 1050 м
[Sc]
+10.8 -4.4 34 +11 +11 871.7 1000.0 +18.0
15 17.12 штиль 0 4000 м 6/4 300 м
[Sc As op]
+7.8 -0.5 56 +7 +7 866.0 1000.0
18 17.12 штиль 0 4000 м 4/0
[As op]
+5.6 +0.7 71 +5 +5 868.0 1000.0
21 17.12 штиль 0 4000 м 4/0
[As op]
+3.3 +1.0 85 +2 +2 871.0 1000.0
00 18.12 штиль 0 4000 м 4/0
[As op]
+1.1 -0.3 90 -0 -0 874.0 1000.0
03 18.12 штиль 0 10 км ясно -1.1 -4.0 81 -2 -2 878.0 1000.0 -2.5
06 18.12 ЮЗ 1 10 км ясно +10.0 -6.3 31 +11 +18 879.0 1000.0
09 18.12 З 1 10 км ясно +16.7 -6.1 20 +18 +24 866.0 1000.0
12 18.12 ЮЗ 1 10 км 5/0
[Ci sp]
+12.2 -2.6 36 +13 +13 855.0 1000.0 +17.5
15 18.12 штиль 0 4000 м 5/0
[As op]
+7.2 -3.6 46 +7 +7 852.0 1000.0
18 18.12 штиль 0 4000 м 4/0
[As op]
+5.0 -3.0 56 +5 +5 855.0 1000.0

 

Местоположение метеостанции Dir (Пакистан): широта 35.20 долгота 71.85 высота над уровнем моря 1370 м.

В архиве по умолчанию представлена погода в Dir за последнюю неделю. Архивные данные за месяц целиком и за предыдущие месяцы, начиная с января 2011 года, Вы можете получить, выбрав интересующий диапазон дат из раскрывающегося списка и нажав кнопку "Ввод!".


*Определитесь, кто Вы:
робот инопланетянин человек

Внимание! Время в таблицах - всемирное. Для получения местного времени необходимо прибавить поправку, которая в Dir равна 5 ч.

Смотрите также архив погоды в соседних городах и на ближайших метеорологических станциях:

Погода в Drosh (Пакистан) (42 км)
Погода в Saidu Sharif (Пакистан) (69 км)
Погода в Chitral (Пакистан) (72 км)
Погода в Risalpur (Пакистан) (125 км)
Погода в Peshawar (Пакистан) (134 км)
Погода в Jalalabad (Афганистан) (152 км)
Погода в Balakor (Пакистан) (165 км)
Погода в Kakul (Пакистан) (171 км)
Погода в Искачеме (Таджикистан) (171 км)
Погода в Kohat (Пакистан) (185 км)

Пояснения к столбцам:

Ветер - указаны скорость ветра в м/с - средняя за 10 мин, порывы в срок и между сроками (в фигурных скобках) и направление, откуда дует ветер: С - северный, СВ - северо-восточный, В - восточный, ЮВ - юго-восточный, Ю - южный, ЮЗ - юго-западный, З - западный, СЗ - северо-западный.
Видимость - горизонтальная дальность видимости в метрах или километрах. При видимости от 1 до 10 км при отсутствии осадков обычно наблюдается дымка, при ухудшении видимости до 1 км и менее - туман. В сухую погоду видимость может ухудшаться дымом, пылью или мглою.
Явления - указаны атмосферные явления, наблюдавшиеся в срок или в последний час перед сроком; фигурными скобками обозначены явления, наблюдавшиеся между сроками (за 1-3 часа до срока); квадратными скобками обозначены град или гололедные отложения с указанием их диаметра в мм.
Облачность - указаны через наклонную черту общая и нижняя облачность в баллах и высота нижней границы облаков в метрах; квадратными скобками обозначены формы облаков: Ci - перистые, Cs - перисто-слоистые, Cc - перисто-кучевые, Ac - высококучевые, As - высокослоистые, Sc - слоисто-кучевые, Ns - слоисто-дождевые, Cu - кучевые, Cb - кучево-дождевые. Подробнее классификацию облаков см. в Атласе облаков (PDF).
T - Температура воздуха - температура, измеренная на высоте 2 м над землей.
Td - Температура точки росы - температура, при понижении до которой содержащийся в воздухе водяной пар достигнет насыщения.
f - Относительная влажность воздуха - влажноcть воздуха, измеренная на высоте 2 м над землей.
Te - Эффективная температура - температура, которую ощущает одетый по сезону человек в тени. Характеристика душности погоды. При расчете учитывается влияние влажности воздуха и скорости ветра на теплоощущения человека.
Tes - Эффективная температура на солнце - температура, которую ощущает человек, с поправкой на солнечный нагрев. Характеристика знойности погоды. Зависит от высоты солнца над горизонтом, облачности и скорости ветра. Ночью, в пасмурную погоду, а также при ветре 12 м/с и более поправка равна нулю.
P - Атмосферное давление - приведенное к уровню моря атмосферное давление.
Po - Атмосферное давление - измеренное на уровне метеостанции атмосферное давление.
Tmin - Минимальная температура - минимум температуры воздуха на высоте 2 м над землей.
Tmax - Максимальная температура - максимум температуры воздуха на высоте 2 м над землей.
R - Количество осадков - Количество выпавших осадков за период времени, мм. При наведении курсора мыши на число - период времени, за который выпало указанное количество осадков.
R24 - Количество осадков - Количество выпавших осадков за 24 часа, мм.
S - Снежный покров - Высота снежного покрова, см. При наведении курсора мыши на число - состояние снежного покрова и степень покрытия местности в баллах.